Location: *
(32.1824°S, 82.5161°E)
Time: 18:49:40
(UTC+00:00)

Daily predictions for brighter satellites

Satellite Brightness Start Highest point End
(mag) Time Altitude Azimuth Time Altitude Azimuth Time Altitude Azimuth
DMSP B5D1-3 4.5 12:29:35 10° NNE 12:34:38 75° ESE 12:39:47 10° S
Meteor 1-31 Rocket 3.5 12:33:25 10° SE 12:36:43 30° E 12:40:02 10° NNE
ATLAS 5 CENTAUR R/B 2.9 12:32:24 10° SW 12:37:18 46° WNW 12:41:15 10° N
Cosmos 1400 Rocket 3.2 12:37:16 10° NNW 12:41:16 68° W 12:45:15 10° S
SeaSat 1 2.6 12:36:57 10° SSE 12:41:49 56° ENE 12:46:38 10° N
Okean 2 3.3 12:38:58 10° N 12:42:56 67° E 12:46:57 10° SSE
BlueWalker 3 4.5 12:44:18 10° WSW 12:47:23 23° NW 12:50:27 10° N
CZ-2C R/B 2.6 12:44:01 10° SSE 12:47:33 58° E 12:51:06 10° N
Cosmos 482 Debris 4.4 12:53:03 10° WNW 12:54:36 24° SW 12:56:15 10° SSE
SEDSat Delta rocket 3.0 12:53:08 10° WNW 12:57:09 62° NNE 13:00:18 16° E
ISS -3.3 12:54:38 10° NNW 12:57:52 42° NE 13:00:17 16° ESE
SMAP 3.6 12:56:52 10° S 13:01:33 65° WSW 13:06:09 10° NNW
Cosmos 2285 Rocket 4.0 12:55:18 10° N 13:01:41 76° ENE 13:08:10 10° SSE
Cosmos 1346 Rocket 3.1 12:58:40 10° S 13:02:25 41° E 13:06:06 10° NNE
Cosmos 1908 Rocket 3.5 13:01:39 10° S 13:06:03 65° E 13:10:21 10° NNE
ATLAS 3B R/B 3.2 13:00:23 10° SW 13:06:32 58° WNW 13:12:49 10° NNE
AQUARIUS 4.4 13:03:08 10° S 13:07:39 75° WSW 13:12:06 10° NNW
USA 305 2.9 13:16:58 10° NNW 13:18:56 26° NNE 13:18:56 26° NNE
Cosmos 1992 Rocket 4.0 13:14:36 10° SSW 13:19:52 87° WNW 13:25:04 10° NNE
Shi Jian 4 4.4 13:18:12 10° WNW 13:20:34 49° N 13:22:07 28° ENE
Delta 2 Rocket 3.5 13:17:34 10° W 13:21:15 55° S 13:23:05 28° ESE
CZ-4B R/B 4.0 13:20:30 10° SSE 13:25:24 37° E 13:30:10 10° NNE
Cosmos 1140 Rocket 3.4 13:20:21 10° NNW 13:25:31 81° ENE 13:30:44 10° SSE
USA 307 3.1 13:22:49 10° NNW 13:25:03 29° NNE 13:25:03 29° NNE
Cosmos 1300 Rocket 3.9 13:22:23 10° S 13:26:31 40° E 13:29:11 19° NE
IGS 5A 3.5 13:22:42 10° SSE 13:26:46 52° E 13:30:45 10° N
Cosmos 2242 Rocket 3.5 13:23:13 10° N 13:27:40 65° E 13:32:13 10° SSE
Cosmos 1174 3.3 13:26:26 10° NNW 13:29:43 71° WSW 13:31:12 27° SSE
Lacrosse 5 rocket 3.1 13:27:15 10° N 13:28:19 15° NNE 13:28:19 15° NNE
Cosmos 2098 Rocket 4.4 13:26:02 10° S 13:32:25 44° E 13:38:37 10° NNE
Cosmos 1656 4.2 13:28:27 10° S 13:33:44 36° ESE 13:35:00 32° E
Cosmos 407 Rocket 3.4 13:31:05 10° N 13:36:12 67° ENE 13:41:19 10° SSE
Atlas 2A Centaur Rocket 4.5 12:58:21 10° W 13:37:07 59° NNW 13:41:50 22° NE
Cosmos 1953 3.0 13:33:44 10° SSW 13:37:35 54° W 13:41:21 10° N
Cosmos 1455 2.0 13:34:31 10° S 13:38:07 80° W 13:41:40 10° N
H-II Stage 2 4.3 12:59:31 10° W 13:48:16 62° NNW 13:52:10 28° NE
Cosmos 1833 Rocket 2.6 13:44:36 10° NNW 13:50:13 82° ENE 13:55:54 10° SSE
USA 215 3.6 13:53:02 39° ESE 13:54:36 45° SE 14:00:49 10° SSW
Meteor 1-4 Rocket 3.9 13:56:44 10° NNW 13:58:34 29° NW 13:58:34 29° NW
Cosmos 1066 4.5 13:58:17 10° N 14:03:43 75° E 14:09:15 10° SSE
ADEOS Rocket 3.0 14:02:24 10° SSE 14:09:24 85° E 14:15:35 10° NNW
ASTRO E2 4.1 14:09:22 10° W 14:11:26 32° W 14:11:26 32° W
Meteor 2-5 Rocket 3.8 14:07:24 10° N 14:13:21 87° W 14:19:20 10° S
Cosmos 2251 Rocket 4.2 14:09:38 10° NNW 14:14:50 53° WSW 14:20:09 10° S
Cosmos 2184 Rocket 4.4 14:08:52 10° NNW 14:15:09 66° W 14:21:33 10° S
Cosmos 2154 Rocket 4.0 14:10:38 10° N 14:16:51 80° W 14:23:13 10° S
USA 229 DEB 4.2 14:13:24 10° SW 14:19:24 47° WNW 14:23:07 21° N
USA 229 4.2 14:13:30 10° SW 14:19:30 47° WNW 14:23:07 22° N
Cosmos 1610 Rocket 4.4 14:14:16 10° N 14:20:40 85° E 14:27:09 10° S
YAOGAN 1 4.3 14:23:22 26° NW 14:23:22 26° NW 14:25:19 10° NNW
Cosmos 44 4.2 14:24:42 10° SW 14:29:22 46° WNW 14:29:37 45° WNW
Cosmos 1697 Rocket 4.4 14:25:28 10° S 14:27:24 21° S 14:27:24 21° S
Meteor 1-24 Rocket 4.3 14:28:21 10° NNW 14:34:10 56° W 14:39:50 10° S
ISS -0.5 14:32:25 10° WSW 14:33:13 13° WSW 14:33:13 13° WSW
NOSS 3-2 (A) 4.4 21:58:45 66° S 21:58:45 66° S 22:05:41 10° SSE
CZ-4C R/B 4.4 22:11:33 23° SSW 22:11:33 23° SSW 22:14:40 10° S
Cosmos 1975 4.5 22:35:17 32° E 22:35:26 32° E 22:39:01 10° SSE
CENTAUR R/B 3.9 22:40:11 31° SSW 22:40:11 31° SSW 22:45:04 10° S
GEOS 3 Rocket 3.8 22:36:56 10° SE 22:42:12 69° ENE 22:43:13 55° N
Meteor 2-9 Rocket 4.3 22:43:55 64° SSW 22:43:55 64° SSW 22:49:00 10° S
Milstar 3 Cent rocket 4.1 22:40:02 27° NW 22:45:05 41° NNE 22:51:21 10° E
SL-16 R/B 3.5 22:39:58 10° S 22:43:31 32° SSW 22:43:31 32° SSW
IRS-P3 4.4 22:41:33 10° NNE 22:46:51 68° ESE 22:52:13 10° S
Cosmos 2228 Rocket 4.3 22:47:48 10° S 22:52:13 43° E 22:56:31 10° NNE
FengYun 1-2 T 4.1 22:51:11 10° NNE 22:56:41 89° ESE 23:02:16 10° SSW
Cosmos 2278 Rocket 3.8 22:57:28 10° NNE 23:02:29 34° ENE 23:07:33 10° SE
Cosmos 614 Rocket 3.8 23:03:33 63° W 23:03:38 63° WNW 23:08:37 10° N
Cosmos 1553 Rocket 3.9 22:58:05 10° N 23:04:11 84° E 23:10:20 10° S
Hubble Space Telescope 3.3 23:06:29 11° N 23:08:00 13° NNE 23:09:49 10° NE
NOSS 3-2 (C) 4.3 23:05:14 31° WNW 23:09:46 58° WSW 23:17:52 10° SSE
In-Cosmos 22 4.1 23:09:08 10° SSW 23:14:20 54° W 23:19:29 10° N
BREEZE-M DEB (TANK) 4.2 23:17:27 33° SSW 23:17:27 33° SSW 23:19:41 10° SSE
Cosmos 192 4.5 23:13:18 10° N 23:18:12 74° ENE 23:23:12 10° SSE
ARIANE 5 R/B 2.7 23:13:39 10° N 23:18:36 47° W 23:23:34 10° SSW
ARGOS 3.2 23:14:50 10° N 23:20:04 54° W 23:25:22 10° SSW
Cosmos 1633 Rocket 2.9 23:18:16 10° NNW 23:22:39 72° W 23:27:08 10° S
Lacrosse 5 rocket 1.7 23:27:50 40° W 23:28:47 47° NW 23:32:59 10° NNE
Meteor 1-23 Rocket 4.3 23:23:33 10° SSW 23:29:17 58° W 23:34:57 10° N
Spot 4 Rocket 4.2 23:24:51 10° NNE 23:29:59 78° ESE 23:35:11 10° S
Cosmos 1269 Rocket 4.0 23:28:23 10° SSW 23:33:40 62° WNW 23:38:53 10° N
Cosmos 220 Rocket 3.9 23:30:19 13° SSW 23:34:01 59° WNW 23:38:06 10° N
OAO 3 Rocket 3.5 23:32:33 24° NW 23:35:16 60° NNE 23:39:54 10° E
Meteor 1-21 4.2 23:30:11 10° S 23:36:02 87° W 23:41:45 10° N
DELTA 2 R/B (1) 4.4 23:34:01 23° WSW 23:36:56 39° S 23:42:08 10° ESE
CZ-2D R/B 3.8 23:33:55 10° N 23:38:03 44° W 23:42:15 10° SSW
NOAA 12 4.5 23:38:33 10° NNW 23:43:25 39° W 23:48:20 10° SSW
DMSP B5D2-2 4.2 23:38:55 10° S 23:44:05 53° WSW 23:49:09 10° NNW
PSLV R/B 3.3 23:40:58 10° N 23:45:05 80° WNW 23:49:17 10° SSW
SeaSat 1 2.5 23:42:52 10° NNE 23:47:43 60° WNW 23:52:37 10° SSW
SJ-12 4.5 23:45:32 10° NNW 23:49:09 33° W 23:52:50 10° SSW
BREEZE M DEB (TANK) 4.4 23:51:03 10° SSW 23:52:50 13° S 23:55:21 10° SSE
SL-4 R/B 1.8 23:50:20 13° NW 23:53:40 81° SW 23:57:50 10° SE
